Time,TemperatureF,DewpointF,PressureIn,WindDirection,WindDirectionDegrees,WindSpeedMPH,WindSpeedGustMPH,Humidity,HourlyPrecipIn,Conditions,Clouds,dailyrainin,SoftwareType,DateUTC
2013-05-05 00:01:00,50.4,47.0,29.58,NW,310,0.0,0.0,87,0.00,,,0.00,weatherlink.com 1.10,2013-05-05 07:01:00,
2013-05-05 00:16:00,51.2,47.0,29.58,NE,46,0.0,1.0,86,0.00,,,0.00,weatherlink.com 1.10,2013-05-05 07:16:00,
2013-05-05 00:31:00,51.1,47.0,29.59,NE,46,0.0,0.0,85,0.00,,,0.00,weatherlink.com 1.10,2013-05-05 07:31:00,
2013-05-05 00:46:00,50.9,47.0,29.59,NE,46,0.0,1.0,85,0.00,,,0.00,weatherlink.com 1.10,2013-05-05 07:46:00,
2013-05-05 01:01:00,50.5,47.0,29.59,NE,46,0.0,0.0,87,0.00,,,0.00,weatherlink.com 1.10,2013-05-05 08:01:00,
2013-05-05 01:16:00,51.8,48.0,29.59,ENE,73,0.0,2.0,86,0.00,,,0.00,weatherlink.com 1.10,2013-05-05 08:16:00,
2013-05-05 01:31:00,53.1,48.0,29.59,NE,56,0.0,4.0,83,0.00,,,0.00,weatherlink.com 1.10,2013-05-05 08:31:00,
2013-05-05 01:46:00,53.3,48.0,29.59,South,183,0.0,1.0,82,0.00,,,0.00,weatherlink.com 1.10,2013-05-05 08:46:00,
2013-05-05 02:01:00,53.7,48.0,29.59,SSE,151,0.0,2.0,81,0.00,,,0.00,weatherlink.com 1.10,2013-05-05 09:01:00,
2013-05-05 02:16:00,54.6,48.0,29.59,WSW,240,0.0,6.0,79,0.00,,,0.00,weatherlink.com 1.10,2013-05-05 09:16:00,
2013-05-05 02:31:00,55.1,48.0,29.59,SE,133,1.0,4.0,77,0.00,,,0.00,weatherlink.com 1.10,2013-05-05 09:31:00,
2013-05-05 02:46:00,55.3,48.0,29.59,SE,137,0.0,3.0,77,0.00,,,0.00,weatherlink.com 1.10,2013-05-05 09:46:00,
2013-05-05 03:01:00,55.2,48.0,29.59,SE,141,1.0,2.0,77,0.00,,,0.00,weatherlink.com 1.10,2013-05-05 10:01:00,
2013-05-05 03:16:00,55.7,48.0,29.59,SE,126,0.0,6.0,76,0.00,,,0.00,weatherlink.com 1.10,2013-05-05 10:16:00,
2013-05-05 03:31:00,56.1,49.0,29.59,SW,228,0.0,6.0,76,0.00,,,0.00,weatherlink.com 1.10,2013-05-05 10:31:00,
2013-05-05 03:46:00,56.4,48.0,29.59,NNW,334,1.0,4.0,74,0.00,,,0.00,weatherlink.com 1.10,2013-05-05 10:46:00,
2013-05-05 04:01:00,56.6,48.0,29.59,SSE,160,0.0,9.0,73,0.00,,,0.00,weatherlink.com 1.10,2013-05-05 11:01:00,
2013-05-05 04:16:00,56.8,48.0,29.59,West,276,2.0,4.0,73,0.00,,,0.00,weatherlink.com 1.10,2013-05-05 11:16:00,
2013-05-05 04:31:00,57.1,48.0,29.60,SSE,152,1.0,5.0,72,0.00,,,0.00,weatherlink.com 1.10,2013-05-05 11:31:00,
2013-05-05 04:46:00,57.1,48.0,29.60,East,100,0.0,5.0,72,0.00,,,0.00,weatherlink.com 1.10,2013-05-05 11:46:00,
2013-05-05 05:01:00,57.1,48.0,29.61,South,169,1.0,7.0,72,0.00,,,0.00,weatherlink.com 1.10,2013-05-05 12:01:00,
2013-05-05 05:16:00,57.1,49.0,29.61,SSW,204,1.0,2.0,73,0.00,,,0.00,weatherlink.com 1.10,2013-05-05 12:16:00,
2013-05-05 05:31:00,57.1,48.0,29.61,SSW,211,0.0,1.0,72,0.00,,,0.00,weatherlink.com 1.10,2013-05-05 12:31:00,
2013-05-05 05:46:00,57.1,48.0,29.61,South,171,0.0,2.0,72,0.00,,,0.00,weatherlink.com 1.10,2013-05-05 12:46:00,
2013-05-05 06:01:00,57.3,48.0,29.61,SSW,200,0.0,5.0,71,0.00,,,0.00,weatherlink.com 1.10,2013-05-05 13:01:00,
2013-05-05 06:17:00,57.4,48.0,29.61,South,169,0.0,6.0,71,0.00,,,0.00,weatherlink.com 1.10,2013-05-05 13:17:00,
2013-05-05 06:32:00,57.6,48.0,29.61,SSW,207,0.0,7.0,70,0.00,,,0.00,weatherlink.com 1.10,2013-05-05 13:32:00,
2013-05-05 06:47:00,57.6,48.0,29.62,ESE,106,4.0,6.0,70,0.00,,,0.00,weatherlink.com 1.10,2013-05-05 13:47:00,
2013-05-05 07:02:00,57.8,48.0,29.63,South,172,3.0,7.0,70,0.00,,,0.00,weatherlink.com 1.10,2013-05-05 14:02:00,
2013-05-05 07:17:00,58.0,48.0,29.64,SE,145,1.0,7.0,70,0.00,,,0.00,weatherlink.com 1.10,2013-05-05 14:17:00,
2013-05-05 07:32:00,58.3,48.0,29.64,NW,309,0.0,6.0,69,0.00,,,0.00,weatherlink.com 1.10,2013-05-05 14:32:00,
2013-05-05 07:47:00,58.5,48.0,29.64,SSE,153,0.0,9.0,68,0.00,,,0.00,weatherlink.com 1.10,2013-05-05 14:47:00,
2013-05-05 08:02:00,58.7,48.0,29.65,SSE,147,0.0,5.0,67,0.00,,,0.00,weatherlink.com 1.10,2013-05-05 15:02:00,
2013-05-05 08:17:00,58.8,48.0,29.65,SE,146,0.0,7.0,67,0.00,,,0.00,weatherlink.com 1.10,2013-05-05 15:17:00,
2013-05-05 08:32:00,59.1,48.0,29.65,West,264,2.0,5.0,66,0.00,,,0.00,weatherlink.com 1.10,2013-05-05 15:32:00,
2013-05-05 08:47:00,59.5,48.0,29.66,SSW,209,3.0,6.0,65,0.00,,,0.00,weatherlink.com 1.10,2013-05-05 15:47:00,
2013-05-05 09:02:00,60.3,48.0,29.66,ESE,110,4.0,6.0,65,0.00,,,0.00,weatherlink.com 1.10,2013-05-05 16:02:00,
2013-05-05 09:17:00,59.5,48.0,29.66,SW,217,2.0,11.0,65,0.00,,,0.00,weatherlink.com 1.10,2013-05-05 16:17:00,
2013-05-05 09:32:00,60.0,48.0,29.66,ESE,110,0.0,4.0,64,0.00,,,0.00,weatherlink.com 1.10,2013-05-05 16:32:00,
2013-05-05 09:47:00,60.3,48.0,29.67,SE,142,3.0,4.0,64,0.00,,,0.00,weatherlink.com 1.10,2013-05-05 16:47:00,
2013-05-05 10:02:00,60.0,48.0,29.68,South,172,1.0,7.0,65,0.00,,,0.00,weatherlink.com 1.10,2013-05-05 17:02:00,
2013-05-05 10:17:00,60.4,48.0,29.67,SSE,168,0.0,5.0,64,0.00,,,0.00,weatherlink.com 1.10,2013-05-05 17:17:00,
2013-05-05 10:32:00,61.2,48.0,29.67,SW,215,2.0,6.0,62,0.00,,,0.00,weatherlink.com 1.10,2013-05-05 17:32:00,
2013-05-05 10:47:00,61.6,48.0,29.68,South,176,0.0,5.0,62,0.00,,,0.00,weatherlink.com 1.10,2013-05-05 17:47:00,
2013-05-05 11:02:00,61.1,48.0,29.69,SE,136,1.0,3.0,63,0.00,,,0.00,weatherlink.com 1.10,2013-05-05 18:02:00,
2013-05-05 11:17:00,60.8,48.0,29.70,WSW,240,0.0,3.0,64,0.00,,,0.00,weatherlink.com 1.10,2013-05-05 18:17:00,
2013-05-05 11:32:00,60.3,48.0,29.70,South,191,0.0,4.0,65,0.00,,,0.00,weatherlink.com 1.10,2013-05-05 18:32:00,
2013-05-05 11:47:00,60.8,49.0,29.69,SE,129,0.0,2.0,65,0.00,,,0.00,weatherlink.com 1.10,2013-05-05 18:47:00,
2013-05-05 12:02:00,61.1,49.0,29.69,SSW,207,0.0,2.0,64,0.00,,,0.00,weatherlink.com 1.10,2013-05-05 19:02:00,
2013-05-05 12:17:00,61.0,49.0,29.69,SW,219,2.0,4.0,65,0.00,,,0.00,weatherlink.com 1.10,2013-05-05 19:17:00,
2013-05-05 12:32:00,63.0,51.0,29.68,ENE,58,0.0,4.0,65,0.00,,,0.00,weatherlink.com 1.10,2013-05-05 19:32:00,
2013-05-05 12:47:00,65.7,51.0,29.68,SSE,167,0.0,5.0,60,0.00,,,0.00,weatherlink.com 1.10,2013-05-05 19:47:00,
2013-05-05 13:03:00,68.4,50.0,29.68,SE,134,0.0,4.0,53,0.00,,,0.00,weatherlink.com 1.10,2013-05-05 20:03:00,
2013-05-05 13:18:00,68.3,50.0,29.68,North,349,0.0,6.0,52,0.00,,,0.00,weatherlink.com 1.10,2013-05-05 20:18:00,
2013-05-05 13:33:00,67.5,50.0,29.68,SE,131,0.0,5.0,54,0.00,,,0.00,weatherlink.com 1.10,2013-05-05 20:33:00,
2013-05-05 13:48:00,67.9,50.0,29.68,SSW,205,0.0,4.0,53,0.00,,,0.00,weatherlink.com 1.10,2013-05-05 20:48:00,
2013-05-05 14:03:00,67.4,51.0,29.68,SSE,157,3.0,5.0,56,0.00,,,0.00,weatherlink.com 1.10,2013-05-05 21:03:00,
2013-05-05 14:18:00,67.3,50.0,29.68,WSW,247,2.0,6.0,54,0.00,,,0.00,weatherlink.com 1.10,2013-05-05 21:18:00,
2013-05-05 14:33:00,67.9,50.0,29.68,SE,124,1.0,7.0,53,0.00,,,0.00,weatherlink.com 1.10,2013-05-05 21:33:00,
2013-05-05 14:48:00,67.5,49.0,29.68,SSE,160,0.0,5.0,52,0.00,,,0.00,weatherlink.com 1.10,2013-05-05 21:48:00,
2013-05-05 15:03:00,67.3,49.0,29.68,SE,140,0.0,4.0,53,0.00,,,0.00,weatherlink.com 1.10,2013-05-05 22:03:00,
2013-05-05 15:18:00,67.5,50.0,29.68,SE,134,2.0,4.0,53,0.00,,,0.00,weatherlink.com 1.10,2013-05-05 22:18:00,
2013-05-05 15:33:00,66.6,50.0,29.68,ENE,68,0.0,3.0,55,0.00,,,0.00,weatherlink.com 1.10,2013-05-05 22:33:00,
2013-05-05 15:48:00,66.2,49.0,29.68,ENE,62,0.0,2.0,55,0.00,,,0.00,weatherlink.com 1.10,2013-05-05 22:48:00,
2013-05-05 16:03:00,65.0,49.0,29.68,East,92,1.0,4.0,57,0.00,,,0.00,weatherlink.com 1.10,2013-05-05 23:03:00,
2013-05-05 16:18:00,65.2,49.0,29.68,SE,141,0.0,2.0,57,0.00,,,0.00,weatherlink.com 1.10,2013-05-05 23:18:00,
2013-05-05 16:33:00,64.3,49.0,29.69,ESE,105,0.0,5.0,59,0.00,,,0.00,weatherlink.com 1.10,2013-05-05 23:33:00,
2013-05-05 16:48:00,63.4,50.0,29.69,East,91,0.0,4.0,61,0.00,,,0.00,weatherlink.com 1.10,2013-05-05 23:48:00,
2013-05-05 17:03:00,63.2,49.0,29.69,ESE,108,0.0,1.0,61,0.00,,,0.00,weatherlink.com 1.10,2013-05-06 00:03:00,
2013-05-05 17:18:00,63.3,50.0,29.69,East,85,0.0,1.0,62,0.00,,,0.00,weatherlink.com 1.10,2013-05-06 00:18:00,
2013-05-05 17:33:00,64.6,50.0,29.69,SE,138,0.0,1.0,59,0.00,,,0.00,weatherlink.com 1.10,2013-05-06 00:33:00,
2013-05-05 17:48:00,64.7,50.0,29.69,SE,144,0.0,1.0,59,0.00,,,0.00,weatherlink.com 1.10,2013-05-06 00:48:00,
2013-05-05 18:03:00,64.9,50.0,29.69,SE,129,0.0,1.0,59,0.00,,,0.00,weatherlink.com 1.10,2013-05-06 01:03:00,
2013-05-05 18:18:00,65.4,50.0,29.70,East,101,0.0,2.0,58,0.00,,,0.00,weatherlink.com 1.10,2013-05-06 01:18:00,
2013-05-05 18:33:00,64.7,50.0,29.70,SE,134,0.0,1.0,60,0.00,,,0.00,weatherlink.com 1.10,2013-05-06 01:33:00,
2013-05-05 18:48:00,64.3,50.0,29.70,ESE,111,0.0,1.0,60,0.00,,,0.00,weatherlink.com 1.10,2013-05-06 01:48:00,
2013-05-05 19:03:00,63.6,50.0,29.70,NE,52,0.0,2.0,61,0.00,,,0.00,weatherlink.com 1.10,2013-05-06 02:03:00,
2013-05-05 19:18:00,63.1,50.0,29.71,ESE,108,0.0,2.0,62,0.00,,,0.00,weatherlink.com 1.10,2013-05-06 02:18:00,
2013-05-05 19:33:00,62.5,50.0,29.71,ESE,108,0.0,0.0,63,0.00,,,0.00,weatherlink.com 1.10,2013-05-06 02:33:00,
2013-05-05 19:48:00,61.3,49.0,29.72,ESE,108,0.0,1.0,65,0.00,,,0.00,weatherlink.com 1.10,2013-05-06 02:48:00,
2013-05-05 20:03:00,59.7,49.0,29.72,ESE,108,0.0,0.0,68,0.00,,,0.00,weatherlink.com 1.10,2013-05-06 03:03:00,
2013-05-05 20:18:00,58.3,49.0,29.72,East,79,0.0,1.0,71,0.00,,,0.00,weatherlink.com 1.10,2013-05-06 03:18:00,
2013-05-05 20:33:00,57.1,49.0,29.73,East,79,0.0,0.0,74,0.00,,,0.00,weatherlink.com 1.10,2013-05-06 03:33:00,
2013-05-05 20:48:00,55.7,48.0,29.73,East,79,0.0,0.0,76,0.00,,,0.00,weatherlink.com 1.10,2013-05-06 03:48:00,
2013-05-05 21:03:00,54.7,48.0,29.73,East,79,0.0,0.0,79,0.00,,,0.00,weatherlink.com 1.10,2013-05-06 04:03:00,
2013-05-05 21:18:00,54.1,48.0,29.74,East,79,0.0,0.0,81,0.00,,,0.00,weatherlink.com 1.10,2013-05-06 04:18:00,
2013-05-05 21:33:00,53.6,48.0,29.75,East,79,0.0,0.0,82,0.00,,,0.00,weatherlink.com 1.10,2013-05-06 04:33:00,
2013-05-05 21:48:00,53.0,49.0,29.75,East,79,0.0,0.0,85,0.00,,,0.00,weatherlink.com 1.10,2013-05-06 04:48:00,
2013-05-05 22:03:00,53.1,49.0,29.75,East,79,0.0,0.0,85,0.00,,,0.00,weatherlink.com 1.10,2013-05-06 05:03:00,
2013-05-05 22:18:00,54.0,49.0,29.75,East,79,0.0,0.0,84,0.00,,,0.00,weatherlink.com 1.10,2013-05-06 05:18:00,
2013-05-05 22:33:00,53.9,49.0,29.76,East,79,0.0,0.0,83,0.00,,,0.00,weatherlink.com 1.10,2013-05-06 05:33:00,
2013-05-05 22:48:00,53.2,49.0,29.76,East,79,0.0,0.0,85,0.00,,,0.00,weatherlink.com 1.10,2013-05-06 05:48:00,
2013-05-05 23:03:00,52.4,48.0,29.76,East,79,0.0,0.0,86,0.00,,,0.00,weatherlink.com 1.10,2013-05-06 06:03:00,
2013-05-05 23:18:00,52.0,49.0,29.77,East,79,0.0,0.0,88,0.00,,,0.00,weatherlink.com 1.10,2013-05-06 06:18:00,
2013-05-05 23:33:00,51.9,49.0,29.77,East,79,0.0,0.0,88,0.00,,,0.00,weatherlink.com 1.10,2013-05-06 06:33:00,
2013-05-05 23:48:00,51.9,49.0,29.78,East,79,0.0,0.0,89,0.00,,,0.00,weatherlink.com 1.10,2013-05-06 06:48:00,